Date String (YYYY-MM-DD hh:mm:ss) UTC,Instrument flags,Ambient pressure (hPa),Sample flow (lpm),Bypass flow (lpm),Sample temperature (°C),Ambient temperature (°C),ASC tube jacket temperature (°C),LED temperature (°C),Box temperature (°C),Sample RH (%),Span deviation,Mass concentration (μg/m³),Mass concentration (μg/m³),Mass concentration (μg/m³)
DateTimeUTC,F1_M11,P_M11,Q1_M11,Q2_M11,T1_M11,T2_M11,T3_M11,T4_M11,T5_M11,U1_M11,ZSPAN_M11,X0_M11,X2_M11,X1_M11
2021-10-06 09:00:00,,0828.1,4.99,0.00,30.5,29.6,00.0,39.7,32.2,12.6,0000.0,0016.38,0004.91,0003.87
2021-10-06 09:01:00,,0828.1,5.01,0.00,30.6,29.6,00.0,39.7,32.3,12.5,0000.0,0016.48,0004.88,0003.86
2021-10-06 09:02:00,,0828.1,5.01,0.00,30.6,29.6,00.0,39.7,32.3,12.5,0000.0,0016.75,0004.89,0003.87
2021-10-06 09:03:00,,0828.1,4.99,0.00,30.6,29.6,00.0,39.7,32.3,12.5,0000.0,0016.01,0004.87,0003.87
2021-10-06 09:04:00,,0828.1,5.00,0.00,30.6,29.7,00.0,39.7,32.3,12.4,0000.0,0014.11,0004.88,0003.88
2021-10-06 09:05:00,,0828.1,5.01,0.00,30.6,29.7,00.0,39.7,32.3,12.4,0000.0,0013.95,0004.87,0003.88
2021-10-06 09:06:00,,0828.1,5.01,0.00,30.6,29.6,00.0,39.7,32.3,12.4,0000.0,0013.27,0004.89,0003.88
2021-10-06 09:07:00,,0828.1,4.99,0.00,30.6,29.6,00.0,39.7,32.3,12.4,0000.0,0013.23,0004.90,0003.88
2021-10-06 09:08:00,,0828.0,5.01,0.00,30.6,29.7,00.0,39.7,32.3,12.4,0000.0,0013.27,0004.88,0003.89
2021-10-06 09:09:00,,0828.0,5.00,0.00,30.6,29.7,00.0,39.7,32.3,12.4,0000.0,0014.18,0004.89,0003.89
2021-10-06 09:10:00,,0828.1,5.00,0.00,30.6,29.7,00.0,39.7,32.3,12.4,0000.0,0014.63,0004.92,0003.89
2021-10-06 09:11:00,,0828.0,5.01,0.00,30.6,29.7,00.0,39.7,32.3,12.4,0000.0,0013.97,0004.97,0003.90
2021-10-06 09:12:00,,0828.0,5.00,0.00,30.6,29.6,00.0,39.7,32.3,12.4,0000.0,0013.33,0005.00,0003.92
2021-10-06 09:13:00,,0828.0,5.00,0.00,30.6,29.7,00.0,39.7,32.3,12.3,0000.0,0013.96,0004.98,0003.91
2021-10-06 09:14:00,,0828.0,4.99,0.00,30.6,29.7,00.0,39.7,32.3,12.3,0000.0,0014.26,0005.00,0003.90
2021-10-06 09:15:00,,0828.1,5.01,0.00,30.6,29.7,00.0,39.7,32.3,12.3,0000.0,0015.14,0004.97,0003.90
2021-10-06 09:16:00,,0828.0,4.99,0.00,30.6,29.7,00.0,39.7,32.3,12.3,0000.0,0014.87,0005.01,0003.90
2021-10-06 09:17:00,,0827.9,5.01,0.00,30.6,29.7,00.0,39.7,32.3,12.3,0000.0,0014.67,0004.98,0003.90
2021-10-06 09:18:00,,0828.0,4.99,0.00,30.6,29.7,00.0,39.7,32.3,12.3,0000.0,0014.74,0005.00,0003.90
2021-10-06 09:19:00,,0827.9,5.01,0.00,30.6,29.7,00.0,39.7,32.3,12.3,0000.0,0015.40,0005.02,0003.89
2021-10-06 09:20:00,,0827.9,5.01,0.00,30.6,29.7,00.0,39.7,32.3,12.3,0000.0,0015.18,0005.03,0003.89
2021-10-06 09:21:00,,0827.9,5.00,0.00,30.6,29.7,00.0,39.7,32.3,12.3,0000.0,0015.02,0005.06,0003.90
2021-10-06 09:22:00,,0827.8,4.99,0.00,30.6,29.7,00.0,39.7,32.3,12.3,0000.8,0015.68,0005.07,0003.91
2021-10-06 09:23:00,,0827.9,5.00,0.00,30.6,29.2,00.0,39.7,32.2,12.3,0001.0,0015.75,0005.04,0003.91
2021-10-06 09:24:00,,0827.9,5.02,0.00,30.5,27.1,00.0,39.7,31.7,12.3,0000.9,0014.93,0005.04,0003.91
2021-10-06 09:25:00,,0827.9,4.98,0.00,30.3,26.4,00.0,39.6,31.5,12.4,0000.3,0014.74,0005.11,0003.92
2021-10-06 09:26:00,,0827.8,5.01,0.00,30.2,26.6,00.0,39.6,31.5,12.5,0000.0,0014.06,0005.14,0003.92
2021-10-06 09:27:00,,0827.9,5.01,0.00,30.1,27.1,00.0,39.5,31.5,12.6,0000.2,0013.88,0005.08,0003.91
2021-10-06 09:28:00,,0827.9,4.99,0.00,30.1,27.5,00.0,39.4,31.5,12.6,0000.0,0014.26,0005.13,0003.90
2021-10-06 09:29:00,,0827.8,5.01,0.00,30.1,27.8,00.0,39.4,31.5,12.6,0000.0,0013.75,0005.11,0003.88
2021-10-06 09:30:00,,0827.9,4.99,0.00,30.0,28.1,00.0,39.4,31.6,12.6,0000.0,0012.85,0005.14,0003.89
2021-10-06 09:31:00,,0827.9,5.00,0.00,30.0,28.3,00.0,39.3,31.6,12.7,0000.4,0012.75,0005.13,0003.89
2021-10-06 09:32:00,,0827.9,5.01,0.00,30.0,28.4,00.0,39.3,31.6,12.7,0000.0,0013.03,0005.07,0003.87
2021-10-06 09:33:00,,0827.9,4.99,0.00,30.1,28.5,00.0,39.3,31.7,12.7,0000.0,0012.64,0005.04,0003.86
2021-10-06 09:34:00,,0827.9,5.00,0.00,30.1,28.6,00.0,39.3,31.7,12.7,0000.0,0012.66,0005.05,0003.86
2021-10-06 09:35:00,,0827.9,5.00,0.00,30.1,28.7,00.0,39.3,31.8,12.6,0000.0,0013.53,0005.07,0003.87
2021-10-06 09:36:00,,0827.9,5.01,0.00,30.1,28.8,00.0,39.3,31.8,12.6,0000.0,0014.50,0005.05,0003.86
2021-10-06 09:37:00,,0827.8,5.00,0.00,30.1,28.9,00.0,39.3,31.8,12.6,0000.0,0014.30,0005.01,0003.87
2021-10-06 09:38:00,,0827.8,5.00,0.00,30.1,29.0,00.0,39.3,31.8,12.6,0000.0,0014.43,0004.99,0003.86
2021-10-06 09:39:00,,0827.8,4.99,0.00,30.1,29.0,00.0,39.3,31.8,12.6,0000.0,0014.39,0004.92,0003.86
2021-10-06 09:40:00,,0827.7,4.99,0.00,30.1,29.1,00.0,39.3,31.8,12.6,0000.0,0014.86,0004.88,0003.87
2021-10-06 09:41:00,,0827.7,5.01,0.00,30.1,29.1,00.0,39.3,31.9,12.6,0000.0,0015.13,0004.83,0003.87
2021-10-06 09:42:00,,0827.8,5.01,0.00,30.1,29.2,00.0,39.3,31.9,12.7,0000.0,0014.94,0004.84,0003.88
2021-10-06 09:43:00,,0827.7,5.01,0.00,30.1,29.2,00.0,39.3,31.9,12.7,0000.0,0014.58,0004.90,0003.88
2021-10-06 09:44:00,,0827.7,4.98,0.00,30.2,29.2,00.0,39.3,31.9,12.7,0000.0,0015.68,0005.00,0003.89
2021-10-06 09:45:00,,0827.7,5.00,0.00,30.2,29.2,00.0,39.3,32.0,12.6,0000.0,0016.45,0005.04,0003.88
2021-10-06 09:46:00,,0827.7,5.01,0.00,30.2,29.3,00.0,39.3,32.0,12.7,0000.0,0016.17,0005.06,0003.87
2021-10-06 09:47:00,,0827.8,4.99,0.00,30.2,29.3,00.0,39.3,32.0,12.7,0000.0,0015.88,0005.05,0003.87
2021-10-06 09:48:00,,0827.8,5.00,0.00,30.2,29.3,00.0,39.3,32.0,12.7,0000.0,0015.74,0005.08,0003.86
2021-10-06 09:49:00,,0827.8,5.00,0.00,30.2,29.3,00.0,39.3,32.0,12.6,0000.0,0015.45,0005.14,0003.88
2021-10-06 09:50:00,,0827.9,5.02,0.00,30.2,29.3,00.0,39.3,32.0,12.7,0000.0,0015.56,0005.27,0003.89
2021-10-06 09:51:00,,0827.9,5.00,0.00,30.3,29.3,00.0,39.4,32.1,12.8,0000.0,0015.35,0005.31,0003.90
2021-10-06 09:52:00,,0827.9,4.99,0.00,30.3,29.3,00.0,39.4,32.1,12.9,0000.0,0016.58,0005.34,0003.90
2021-10-06 09:53:00,,0827.8,5.00,0.00,30.3,29.3,00.0,39.4,32.1,12.8,0000.0,0017.01,0005.35,0003.89
2021-10-06 09:54:00,,0827.8,5.00,0.00,30.3,29.3,00.0,39.4,32.0,12.9,0000.0,0016.70,0005.27,0003.89
2021-10-06 09:55:00,,0827.8,5.01,0.00,30.3,29.3,00.0,39.4,32.0,12.9,0000.0,0016.04,0005.20,0003.90
2021-10-06 09:56:00,,0827.7,5.00,0.00,30.3,29.3,00.0,39.4,32.0,12.8,0001.3,0015.65,0005.22,0003.92
2021-10-06 09:57:00,,0827.7,5.00,0.00,30.3,29.3,00.0,39.4,32.0,12.8,0000.6,0015.38,0005.20,0003.94
2021-10-06 09:58:00,,0827.8,5.01,0.00,30.3,29.3,00.0,39.4,32.0,12.8,0000.0,0014.75,0005.18,0003.95
2021-10-06 09:59:00,,0827.8,5.00,0.00,30.3,29.3,00.0,39.4,32.0,12.8,0000.0,0014.87,0005.16,0003.96
